This is the latest recevied weather packets stored in our database for station/object WY7EM. If no packets are shown the sender has not sent any weather packets the latest 10 day(s).
| Time | Temp. | Humidity | Pressure | Rain* | Wind** | Luminosity | Snow |
|---|---|---|---|---|---|---|---|
| 1777904898 | 15.56° C | 47% | 1012.3 hPa | 0 mm | - | 114 W/m² | - |
| 1777904595 | 15° C | 48% | 1012.3 hPa | 0 mm | - | 104 W/m² | - |
| 1777904292 | 15° C | 48% | 1012.3 hPa | 0 mm | - | 92 W/m² | - |
| 1777903989 | 15° C | 48% | 1012.3 hPa | 0 mm | - | 85 W/m² | - |
| 1777903686 | 14.44° C | 51% | 1012.2 hPa | 0 mm | - | 77 W/m² | - |
| 1777903382 | 14.44° C | 50% | 1012.1 hPa | 0 mm | - | 72 W/m² | - |
| 1777903078 | 14.44° C | 50% | 1011.9 hPa | 0 mm | - | 69 W/m² | - |
| 1777902775 | 14.44° C | 49% | 1012 hPa | 0 mm | - | 63 W/m² | - |
| 1777902473 | 13.89° C | 51% | 1012.2 hPa | 0 mm | - | 57 W/m² | - |
| 1777902169 | 13.89° C | 52% | 1012.1 hPa | 0 mm | - | 53 W/m² | - |
| 1777901867 | 13.89° C | 52% | 1011.9 hPa | 0 mm | - | 51 W/m² | - |
| 1777901564 | 13.89° C | 51% | 1012.2 hPa | 0 mm | - | 44 W/m² | - |
| 1777901262 | 13.89° C | 50% | 1011.9 hPa | 0 mm | - | 39 W/m² | - |
| 1777900959 | 13.89° C | 50% | 1011.8 hPa | 0 mm | - | 31 W/m² | - |
| 1777900656 | 13.89° C | 51% | 1011.9 hPa | 0 mm | - | 27 W/m² | - |
| 1777900353 | 13.89° C | 50% | 1011.8 hPa | 0 mm | - | 21 W/m² | - |
| 1777900050 | 13.89° C | 49% | 1011.8 hPa | 0 mm | - | 17 W/m² | - |
| 1777899746 | 13.89° C | 50% | 1011.9 hPa | 0 mm | - | 14 W/m² | - |
| 1777899444 | 13.89° C | 49% | 1011.9 hPa | 0 mm | - | 12 W/m² | - |
| 1777899141 | 13.89° C | 49% | 1011.6 hPa | 0 mm | - | 9 W/m² | - |
| 1777898839 | 13.89° C | 50% | 1011.9 hPa | 0 mm | - | 7 W/m² | - |
| 1777898536 | 13.89° C | 49% | 1011.6 hPa | 0 mm | - | 5 W/m² | - |
| 1777898234 | 13.89° C | 50% | 1011.8 hPa | 0 mm | - | 3 W/m² | - |
| 1777897931 | 13.89° C | 51% | 1011.6 hPa | 0 mm | - | 2 W/m² | - |
| 1777897626 | 13.89° C | 50% | 1011.8 hPa | 0 mm | - | 1 W/m² | - |
* Rain latest hour (hover to see other rain measurements)
** Current wind speed in m/s (hover to see current wind gust speed)